Regional Weather Roundup
Issued by NWS

Home | Current Version | Previous Version | Graphics & Text | Print | Product List | Glossary On
Versions: 1 2 3 4 5 6 7 8 9 10 11 12 13 14 15 16 17 18 19 20 21 22 23 24 25 26 27 28 29 30 31 32 33 34 35 36 37 38 39 40 41 42 43 44 45 46 47 48 49 50
000
ASUS45 KCYS 181510
RWRWY

WYOMING REGIONAL WEATHER ROUNDUP
NATIONAL WEATHER SERVICE CHEYENNE WY
800 AM MST THU DEC 18 2014

NOTE:  "FAIR" INDICATES FEW OR NO CLOUDS BELOW 12,000 FEET
WITH NO SIGNIFICANT WEATHER AND/OR OBSTRUCTIONS TO VISIBILITY.

WYZ001-181600-
YELLOWSTONE NATIONAL PARK

CITY           SKY/WX    TMP DP  RH WIND       PRES   REMARKS
LK YELLOWSTONE   N/A     18  16  92 CALM      30.05R
W YELLOWSTONE  NOT AVBL

$$
WYZ002>013-054>058-071-098>099-181600-
NORTHERN WYOMING

CITY           SKY/WX    TMP DP  RH WIND       PRES   REMARKS
JACKSON        LGT SNOW  18  16  93 CALM      30.08R
CODY           FAIR      21  12  68 CALM      29.99R
GREYBULL       FAIR       5   2  87 W3        30.08R
WORLAND        FAIR       0  -4  83 SW9       30.05R WCI -15
SHERIDAN       FAIR      13   7  77 MISG      29.97R
BUFFALO        FAIR      25  14  63 W9        29.98R WCI  15
GILLETTE       FAIR      25  17  72 VRB3      29.97R
HULETT           N/A    N/A N/A N/A MISG        N/A
NEWCASTLE      FAIR      14  12  92 CALM      30.00S

$$
WYZ014>020-022>026-101>103-181600-
CENTRAL WYOMING

CITY           SKY/WX    TMP DP  RH WIND       PRES   REMARKS
BIG PINEY      FAIR       5   2  87 E5        30.07R WCI  -4
PINEDALE       FAIR       9   5  85 CALM      30.07S
DUBOIS         FAIR      21  12  68 NW8       30.01R WCI  12
LANDER         MOCLDY    -5  -8  87 CALM      30.04R FOG
RIVERTON       FOG        6   2  83 MISG      30.05R VSB<1/4
CASPER         FAIR      21  13  71 SW10      30.03R WCI  10
DOUGLAS        FAIR       6   3  87 CALM      30.02R

$$
WYZ021-027>030-104>119-181600-
SOUTHERN WYOMING

CITY           SKY/WX    TMP DP  RH WIND       PRES   REMARKS
EVANSTON       CLOUDY    23  20  88 SW5       30.07S WCI  17
KEMMERER       CLOUDY    21  19  93 CALM      30.07S
FORT BRIDGER   FAIR      24  21  91 SW8       30.10S WCI  14
ROCK SPRINGS   FAIR      16  14  92 W9        30.08R WCI   4
DIXON          FLURRIES N/A N/A N/A CALM      30.13S
RAWLINS        FAIR      20  15  81 SW17      30.06R WCI   5
SARATOGA       PTSUNNY   18  10  73 S6        30.07S WCI   9
LARAMIE        FAIR      11   7  84 W6        29.99R WCI   1
CHEYENNE       FAIR      29  15  56 W14       30.01R WCI  18
TORRINGTON     FAIR       5   1  83 CALM      30.03S FOG
PINE BLUFFS    FAIR      23  18  80 W5        30.02R WCI  17

$$



USA.gov is the U.S. government's official web portal to all federal, state and local government web resources and services.